This is the latest recevied weather packets stored in our database for station/object WA4OPQ-1. If no packets are shown the sender has not sent any weather packets the latest 10 day(s).
| Time | Temp. | Humidity | Pressure | Rain* | Wind** | Luminosity | Snow |
|---|---|---|---|---|---|---|---|
| 1787686224 | 31.11° C | 51% | 1013.9 hPa | 0 mm | 0 m/s | 627 W/m² | - |
| 1787685629 | 30.56° C | 61% | 1014 hPa | 0 mm | 0 m/s | 623 W/m² | - |
| 1787685074 | 30° C | 58% | 1014 hPa | 0 mm | 0 m/s | 648 W/m² | - |
| 1787684481 | 31.11° C | 55% | 1014.2 hPa | 0 mm | 0 m/s | 661 W/m² | - |
| 1787683899 | 30.56° C | 58% | 1014.2 hPa | 0 mm | 0 m/s | 618 W/m² | - |
| 1787683379 | 30.56° C | 54% | 1014 hPa | 0 mm | 0.45 m/s, 324° | 654 W/m² | - |
| 1787682781 | 31.11° C | 58% | 1014.1 hPa | 0 mm | 0 m/s | 671 W/m² | - |
| 1787682234 | 30.56° C | 55% | 1014.3 hPa | 0 mm | 0 m/s | 682 W/m² | - |
| 1787681654 | 30° C | 55% | 1014.5 hPa | 0 mm | 0 m/s | 667 W/m² | - |
| 1787681099 | 30° C | 61% | 1014.4 hPa | 0 mm | 0 m/s | 661 W/m² | - |
| 1787680524 | 29.44° C | 58% | 1014.7 hPa | 0 mm | 0.45 m/s, 306° | 679 W/m² | - |
| 1787679964 | 30.56° C | 57% | 1015 hPa | 0 mm | 0.45 m/s, 315° | 694 W/m² | - |
| 1787679461 | 29.44° C | 58% | 1015 hPa | 0 mm | 0.89 m/s, 294° | 694 W/m² | - |
| 1787678899 | 30° C | 61% | 1014.9 hPa | 0 mm | 0 m/s | 683 W/m² | - |
| 1787678404 | 29.44° C | 59% | 1014.9 hPa | 0 mm | 0.45 m/s, 299° | 673 W/m² | - |
| 1787677829 | 29.44° C | 60% | 1015.1 hPa | 0 mm | 0 m/s | 636 W/m² | - |
| 1787677249 | 29.44° C | 62% | 1015.2 hPa | 0 mm | 0 m/s | 649 W/m² | - |
| 1787676749 | 28.89° C | 59% | 1015.5 hPa | 0 mm | 0 m/s | 661 W/m² | - |
| 1787676249 | 28.89° C | 61% | 1015.3 hPa | 0 mm | 0.89 m/s, 286° | 648 W/m² | - |
| 1787675761 | 28.89° C | 59% | 1015.5 hPa | 0 mm | 0 m/s | 688 W/m² | - |
| 1787675264 | 28.89° C | 63% | 1015.8 hPa | 0 mm | 0.45 m/s, 305° | 619 W/m² | - |
| 1787674694 | 28.89° C | 62% | 1016 hPa | 0 mm | 0 m/s | 700 W/m² | - |
| 1787674209 | 28.89° C | 62% | 1015.7 hPa | 0 mm | 0 m/s | 695 W/m² | - |
| 1787673714 | 28.89° C | 62% | 1015.5 hPa | 0 mm | 0 m/s | 707 W/m² | - |
| 1787673181 | 27.78° C | 64% | 1015.8 hPa | 0 mm | 0 m/s | 706 W/m² | - |
* Rain latest hour (hover to see other rain measurements)
** Current wind speed in m/s (hover to see current wind gust speed)